Time,TemperatureF,DewpointF,PressureIn,WindDirection,WindDirectionDegrees,WindSpeedMPH,WindSpeedGustMPH,Humidity,HourlyPrecipIn,Conditions,Clouds,dailyrainin,SoftwareType,DateUTC
2013-02-04 00:00:00,19.4,17.7,30.02,WSW,248,0.0,1.0,93,0.00,,,0.00,VWS V14.01,2013-02-04 06:00:00,
2013-02-04 00:12:00,19.4,18.0,30.01,SE,127,0.0,1.0,93,0.00,,,0.00,weatherlink.com 1.10,2013-02-04 06:12:00,
2013-02-04 00:27:00,19.5,18.0,30.00,ESE,106,1.0,2.0,93,0.00,,,0.00,weatherlink.com 1.10,2013-02-04 06:27:00,
2013-02-04 00:30:00,19.4,17.7,30.00,East,90,0.0,2.0,93,0.00,,,0.00,VWS V14.01,2013-02-04 06:30:00,
2013-02-04 00:42:00,19.5,18.0,30.00,East,96,1.0,3.0,93,0.00,,,0.00,weatherlink.com 1.10,2013-02-04 06:42:00,
2013-02-04 00:57:00,19.5,18.0,29.99,ESE,117,2.0,3.0,93,0.00,,,0.00,weatherlink.com 1.10,2013-02-04 06:57:00,
2013-02-04 01:00:00,19.5,17.8,29.99,ESE,112,1.0,4.0,93,0.00,,,0.00,VWS V14.01,2013-02-04 07:00:00,
2013-02-04 01:13:00,19.6,18.0,29.98,ESE,108,1.0,3.0,93,0.00,,,0.00,weatherlink.com 1.10,2013-02-04 07:13:00,
2013-02-04 01:28:00,19.6,18.0,29.97,ESE,110,3.0,5.0,93,0.00,,,0.00,weatherlink.com 1.10,2013-02-04 07:28:00,
2013-02-04 01:30:00,19.6,17.9,29.97,ESE,112,2.0,5.0,93,0.00,,,0.00,VWS V14.01,2013-02-04 07:30:00,
2013-02-04 01:43:00,19.7,18.0,29.96,SE,141,4.0,7.0,93,0.00,,,0.00,weatherlink.com 1.10,2013-02-04 07:43:00,
2013-02-04 01:58:00,19.7,18.0,29.96,SSE,162,1.0,5.0,93,0.00,,,0.00,weatherlink.com 1.10,2013-02-04 07:58:00,
2013-02-04 02:00:00,19.7,18.0,29.96,SE,135,2.0,7.0,93,0.00,,,0.00,VWS V14.01,2013-02-04 08:00:00,
2013-02-04 02:13:00,19.9,18.0,29.95,ESE,110,2.0,4.0,93,0.00,,,0.00,weatherlink.com 1.10,2013-02-04 08:13:00,
2013-02-04 02:28:00,20.0,19.0,29.94,East,81,5.0,6.0,94,0.00,,,0.00,weatherlink.com 1.10,2013-02-04 08:28:00,
2013-02-04 02:30:00,20.0,18.5,29.94,ESE,112,2.0,6.0,94,0.00,,,0.00,VWS V14.01,2013-02-04 08:30:00,
2013-02-04 02:43:00,20.0,18.0,29.94,ESE,117,3.0,7.0,93,0.00,,,0.00,weatherlink.com 1.10,2013-02-04 08:43:00,
2013-02-04 02:58:00,20.0,18.0,29.93,East,85,2.0,6.0,93,0.00,,,0.00,weatherlink.com 1.10,2013-02-04 08:58:00,
2013-02-04 03:00:00,20.0,18.3,29.93,ESE,112,4.0,8.0,93,0.00,,,0.00,VWS V14.01,2013-02-04 09:00:00,
2013-02-04 03:13:00,20.0,19.0,29.93,East,88,5.0,7.0,94,0.00,,,0.00,weatherlink.com 1.10,2013-02-04 09:13:00,
2013-02-04 03:28:00,20.1,19.0,29.93,East,82,3.0,7.0,94,0.00,,,0.00,weatherlink.com 1.10,2013-02-04 09:28:00,
2013-02-04 03:30:00,20.1,18.6,29.92,East,90,4.0,8.0,94,0.00,,,0.00,VWS V14.01,2013-02-04 09:30:00,
2013-02-04 03:43:00,20.1,19.0,29.92,SE,144,3.0,8.0,94,0.00,,,0.00,weatherlink.com 1.10,2013-02-04 09:43:00,
2013-02-04 03:58:00,20.1,19.0,29.91,East,100,3.0,8.0,94,0.00,,,0.00,weatherlink.com 1.10,2013-02-04 09:58:00,
2013-02-04 04:00:00,20.0,18.5,29.92,East,90,5.0,9.0,94,0.00,,,0.00,VWS V14.01,2013-02-04 10:00:00,
2013-02-04 04:13:00,20.1,19.0,29.91,ENE,67,7.0,9.0,94,0.00,,,0.00,weatherlink.com 1.10,2013-02-04 10:13:00,
2013-02-04 04:28:00,20.2,19.0,29.91,NE,55,3.0,8.0,94,0.00,,,0.00,weatherlink.com 1.10,2013-02-04 10:28:00,
2013-02-04 04:30:00,20.2,18.8,29.91,East,90,5.0,10.0,94,0.00,,,0.00,VWS V14.01,2013-02-04 10:30:00,
2013-02-04 04:43:00,20.3,19.0,29.90,East,86,5.0,7.0,94,0.00,,,0.00,weatherlink.com 1.10,2013-02-04 10:43:00,
2013-02-04 04:58:00,20.5,19.0,29.90,East,100,5.0,8.0,94,0.00,,,0.00,weatherlink.com 1.10,2013-02-04 10:58:00,
2013-02-04 05:00:00,20.4,19.0,29.90,East,90,5.0,10.0,94,0.00,,,0.00,VWS V14.01,2013-02-04 11:00:00,
2013-02-04 05:13:00,20.4,19.0,29.89,ENE,78,3.0,9.0,94,0.00,,,0.00,weatherlink.com 1.10,2013-02-04 11:13:00,
2013-02-04 05:28:00,20.4,19.0,29.89,ENE,74,11.0,11.0,94,0.00,,,0.00,weatherlink.com 1.10,2013-02-04 11:28:00,
2013-02-04 05:30:00,20.5,19.0,29.89,East,90,6.0,13.0,94,0.00,,,0.00,VWS V14.01,2013-02-04 11:30:00,
2013-02-04 05:43:00,20.6,19.0,29.89,East,88,8.0,10.0,94,0.00,,,0.00,weatherlink.com 1.10,2013-02-04 11:43:00,
2013-02-04 05:58:00,20.8,19.0,29.88,ENE,76,4.0,12.0,93,0.00,,,0.00,weatherlink.com 1.10,2013-02-04 11:58:00,
2013-02-04 06:00:00,20.7,19.0,29.88,East,90,7.0,13.0,93,0.00,,,0.00,VWS V14.01,2013-02-04 12:00:00,
2013-02-04 06:13:00,20.7,19.0,29.88,East,82,10.0,10.0,94,0.00,,,0.00,weatherlink.com 1.10,2013-02-04 12:13:00,
2013-02-04 06:28:00,20.9,19.0,29.88,East,94,7.0,10.0,93,0.00,,,0.00,weatherlink.com 1.10,2013-02-04 12:28:00,
2013-02-04 06:43:00,20.8,19.0,29.88,East,94,3.0,8.0,93,0.00,,,0.00,weatherlink.com 1.10,2013-02-04 12:43:00,
2013-02-04 06:56:00,20.7,19.0,29.88,East,90,7.0,13.0,93,0.00,,,0.00,VWS V14.01,2013-02-04 12:56:00,
2013-02-04 07:01:00,20.6,18.9,29.88,East,82,5.0,11.0,93,0.00,,,0.00,VWS V14.01,2013-02-04 13:01:00,
2013-02-04 07:06:00,20.5,18.8,29.87,East,93,7.0,11.0,93,0.00,,,0.00,VWS V14.01,2013-02-04 13:06:00,
2013-02-04 07:11:00,20.4,18.7,29.87,East,96,9.0,11.0,93,0.00,,,0.00,VWS V14.01,2013-02-04 13:11:00,
2013-02-04 07:16:00,20.4,18.7,29.87,ENE,71,8.0,11.0,93,0.00,,,0.00,VWS V14.01,2013-02-04 13:16:00,
2013-02-04 07:21:00,20.3,18.6,29.87,ENE,67,5.0,11.0,93,0.00,,,0.00,VWS V14.01,2013-02-04 13:21:00,
2013-02-04 07:26:00,20.3,18.6,29.87,East,82,5.0,11.0,93,0.00,,,0.00,VWS V14.01,2013-02-04 13:26:00,
2013-02-04 07:31:00,20.3,18.6,29.87,East,84,6.0,8.0,93,0.00,,,0.00,VWS V14.01,2013-02-04 13:31:00,
2013-02-04 07:36:00,20.3,18.6,29.88,ENE,74,7.0,9.0,93,0.00,,,0.00,VWS V14.01,2013-02-04 13:36:00,
2013-02-04 07:41:00,20.4,18.7,29.88,ENE,57,5.0,11.0,93,0.00,,,0.00,VWS V14.01,2013-02-04 13:41:00,
2013-02-04 07:46:00,20.5,18.8,29.88,ENE,57,3.0,11.0,93,0.00,,,0.00,VWS V14.01,2013-02-04 13:46:00,
2013-02-04 07:51:00,20.5,18.8,29.88,ENE,71,4.0,11.0,93,0.00,,,0.00,VWS V14.01,2013-02-04 13:51:00,
2013-02-04 07:56:00,20.5,18.5,29.88,ENE,58,7.0,11.0,92,0.00,,,0.00,VWS V14.01,2013-02-04 13:56:00,
2013-02-04 08:01:00,20.5,18.5,29.88,ENE,70,9.0,9.0,92,0.00,,,0.00,VWS V14.01,2013-02-04 14:01:00,
2013-02-04 08:06:00,20.4,18.5,29.89,East,82,7.0,12.0,92,0.00,,,0.00,VWS V14.01,2013-02-04 14:06:00,
2013-02-04 08:11:00,19.9,17.7,29.89,East,94,7.0,13.0,91,0.00,,,0.00,VWS V14.01,2013-02-04 14:11:00,
2013-02-04 08:16:00,19.6,17.7,29.89,ENE,57,11.0,13.0,92,0.00,,,0.00,VWS V14.01,2013-02-04 14:16:00,
2013-02-04 08:21:00,19.5,17.3,29.89,NE,47,6.0,13.0,91,0.00,,,0.00,VWS V14.01,2013-02-04 14:21:00,
2013-02-04 08:26:00,19.6,17.7,29.89,East,82,10.0,13.0,92,0.00,,,0.00,VWS V14.01,2013-02-04 14:26:00,
2013-02-04 08:31:00,19.6,17.7,29.89,East,96,7.0,7.0,92,0.00,,,0.00,VWS V14.01,2013-02-04 14:31:00,
2013-02-04 08:36:00,19.6,17.4,29.89,East,98,7.0,10.0,91,0.00,,,0.00,VWS V14.01,2013-02-04 14:36:00,
2013-02-04 08:41:00,19.6,17.4,29.89,ENE,71,7.0,11.0,91,0.00,,,0.00,VWS V14.01,2013-02-04 14:41:00,
2013-02-04 08:46:00,19.6,17.4,29.89,ENE,64,5.0,11.0,91,0.00,,,0.00,VWS V14.01,2013-02-04 14:46:00,
2013-02-04 08:51:00,19.5,17.3,29.89,ENE,63,10.0,13.0,91,0.00,,,0.00,VWS V14.01,2013-02-04 14:51:00,
2013-02-04 08:56:00,19.4,17.2,29.89,ENE,63,8.0,14.0,91,0.00,,,0.00,VWS V14.01,2013-02-04 14:56:00,
2013-02-04 09:01:00,19.4,17.2,29.89,ENE,63,5.0,7.0,91,0.00,,,0.00,VWS V14.01,2013-02-04 15:01:00,
2013-02-04 09:06:00,19.4,17.2,29.89,NE,44,6.0,13.0,91,0.00,,,0.00,VWS V14.01,2013-02-04 15:06:00,
2013-02-04 09:11:00,19.5,17.3,29.88,ENE,71,11.0,13.0,91,0.00,,,0.00,VWS V14.01,2013-02-04 15:11:00,
2013-02-04 09:16:00,19.6,17.4,29.88,ENE,73,8.0,14.0,91,0.00,,,0.00,VWS V14.01,2013-02-04 15:16:00,
2013-02-04 09:21:00,19.8,17.6,29.88,ENE,61,9.0,14.0,91,0.00,,,0.00,VWS V14.01,2013-02-04 15:21:00,
2013-02-04 09:26:00,19.9,17.7,29.89,NE,51,7.0,14.0,91,0.00,,,0.00,VWS V14.01,2013-02-04 15:26:00,
2013-02-04 09:31:00,20.0,17.5,29.88,ESE,103,4.0,6.0,90,0.00,,,0.00,VWS V14.01,2013-02-04 15:31:00,
2013-02-04 09:36:00,20.1,17.6,29.89,ENE,64,5.0,16.0,90,0.00,,,0.00,VWS V14.01,2013-02-04 15:36:00,
2013-02-04 09:41:00,20.0,17.5,29.89,NE,54,10.0,16.0,90,0.00,,,0.00,VWS V14.01,2013-02-04 15:41:00,
2013-02-04 09:46:00,20.2,17.7,29.88,ENE,76,3.0,16.0,90,0.00,,,0.00,VWS V14.01,2013-02-04 15:46:00,
2013-02-04 09:51:00,20.4,17.9,29.89,ENE,58,3.0,16.0,90,0.00,,,0.00,VWS V14.01,2013-02-04 15:51:00,
2013-02-04 09:56:00,20.6,17.9,29.89,ENE,57,7.0,16.0,89,0.00,,,0.00,VWS V14.01,2013-02-04 15:56:00,
2013-02-04 10:01:00,20.7,18.0,29.89,East,82,6.0,8.0,89,0.00,,,0.00,VWS V14.01,2013-02-04 16:01:00,
2013-02-04 10:06:00,20.8,18.1,29.89,ENE,69,8.0,9.0,89,0.00,,,0.00,VWS V14.01,2013-02-04 16:06:00,
2013-02-04 10:11:00,21.0,18.3,29.89,East,80,6.0,12.0,89,0.00,,,0.00,VWS V14.01,2013-02-04 16:11:00,
2013-02-04 10:16:00,21.2,18.5,29.89,ENE,77,11.0,12.0,89,0.00,,,0.00,VWS V14.01,2013-02-04 16:16:00,
2013-02-04 10:21:00,21.2,18.5,29.89,NE,43,9.0,12.0,89,0.00,,,0.00,VWS V14.01,2013-02-04 16:21:00,
2013-02-04 10:26:00,21.3,18.3,29.89,NE,46,7.0,14.0,88,0.00,,,0.00,VWS V14.01,2013-02-04 16:26:00,
2013-02-04 10:31:00,21.4,18.4,29.89,ENE,71,7.0,11.0,88,0.00,,,0.00,VWS V14.01,2013-02-04 16:31:00,
2013-02-04 10:36:00,21.5,18.5,29.89,ENE,66,10.0,15.0,88,0.00,,,0.00,VWS V14.01,2013-02-04 16:36:00,
2013-02-04 10:41:00,21.7,18.7,29.90,North,5,4.0,15.0,88,0.00,,,0.00,VWS V14.01,2013-02-04 16:41:00,
2013-02-04 10:46:00,21.9,18.6,29.90,NNE,15,7.0,15.0,87,0.00,,,0.00,VWS V14.01,2013-02-04 16:46:00,
2013-02-04 10:51:00,21.9,18.6,29.90,NNW,344,3.0,15.0,87,0.00,,,0.00,VWS V14.01,2013-02-04 16:51:00,
2013-02-04 10:56:00,21.9,18.6,29.90,ENE,61,2.0,15.0,87,0.00,,,0.00,VWS V14.01,2013-02-04 16:56:00,
2013-02-04 11:01:00,21.9,18.6,29.90,NE,43,12.0,13.0,87,0.00,,,0.00,VWS V14.01,2013-02-04 17:01:00,
2013-02-04 11:06:00,21.7,18.4,29.90,NE,38,11.0,15.0,87,0.00,,,0.00,VWS V14.01,2013-02-04 17:06:00,
2013-02-04 11:11:00,21.7,18.4,29.90,NNW,330,3.0,15.0,87,0.00,,,0.00,VWS V14.01,2013-02-04 17:11:00,
2013-02-04 11:16:00,21.9,18.6,29.90,ENE,59,9.0,15.0,87,0.00,,,0.00,VWS V14.01,2013-02-04 17:16:00,
2013-02-04 11:21:00,21.9,18.6,29.90,NNW,340,7.0,15.0,87,0.00,,,0.00,VWS V14.01,2013-02-04 17:21:00,
2013-02-04 11:26:00,22.1,18.8,29.90,ENE,60,2.0,15.0,87,0.00,,,0.00,VWS V14.01,2013-02-04 17:26:00,
2013-02-04 11:31:00,22.5,19.0,29.90,NE,40,6.0,10.0,86,0.00,,,0.00,VWS V14.01,2013-02-04 17:31:00,
2013-02-04 11:36:00,22.7,19.1,29.90,ENE,71,7.0,14.0,86,0.00,,,0.00,VWS V14.01,2013-02-04 17:36:00,
2013-02-04 11:41:00,22.9,19.4,29.90,NE,53,7.0,14.0,86,0.00,,,0.00,VWS V14.01,2013-02-04 17:41:00,
2013-02-04 11:46:00,22.9,19.1,29.90,ENE,62,2.0,14.0,85,0.00,,,0.00,VWS V14.01,2013-02-04 17:46:00,
2013-02-04 11:51:00,22.7,19.1,29.90,NE,43,6.0,16.0,86,0.00,,,0.00,VWS V14.01,2013-02-04 17:51:00,
2013-02-04 11:56:00,22.7,18.9,29.90,NNW,340,5.0,16.0,85,0.00,,,0.00,VWS V14.01,2013-02-04 17:56:00,
2013-02-04 12:01:00,23.0,19.5,29.89,NW,323,1.0,6.0,86,0.00,,,0.00,VWS V14.01,2013-02-04 18:01:00,
2013-02-04 12:06:00,23.0,19.2,29.90,NE,40,11.0,14.0,85,0.00,,,0.00,VWS V14.01,2013-02-04 18:06:00,
2013-02-04 12:11:00,23.0,19.2,29.89,ENE,64,8.0,14.0,85,0.00,,,0.00,VWS V14.01,2013-02-04 18:11:00,
2013-02-04 12:16:00,22.9,19.1,29.89,NE,51,8.0,15.0,85,0.00,,,0.00,VWS V14.01,2013-02-04 18:16:00,
2013-02-04 12:21:00,22.8,19.0,29.89,NE,39,9.0,15.0,85,0.00,,,0.00,VWS V14.01,2013-02-04 18:21:00,
2013-02-04 12:26:00,22.9,19.1,29.89,NE,47,6.0,15.0,85,0.00,,,0.00,VWS V14.01,2013-02-04 18:26:00,
2013-02-04 12:31:00,23.0,19.5,29.90,NW,311,3.0,5.0,86,0.00,,,0.00,VWS V14.01,2013-02-04 18:31:00,
2013-02-04 12:36:00,23.2,19.1,29.90,NE,40,1.0,9.0,84,0.00,,,0.00,VWS V14.01,2013-02-04 18:36:00,
2013-02-04 12:41:00,23.6,19.5,29.90,NNE,17,7.0,11.0,84,0.00,,,0.00,VWS V14.01,2013-02-04 18:41:00,
2013-02-04 12:46:00,23.7,19.6,29.90,NNW,337,3.0,11.0,84,0.00,,,0.00,VWS V14.01,2013-02-04 18:46:00,
2013-02-04 12:51:00,23.8,19.4,29.90,East,81,1.0,12.0,83,0.00,,,0.00,VWS V14.01,2013-02-04 18:51:00,
2013-02-04 12:56:00,23.7,19.3,29.90,NNW,342,7.0,12.0,83,0.00,,,0.00,VWS V14.01,2013-02-04 18:56:00,
2013-02-04 13:01:00,23.3,18.9,29.91,ENE,59,2.0,9.0,83,0.00,,,0.00,VWS V14.01,2013-02-04 19:01:00,
2013-02-04 13:06:00,23.5,19.1,29.90,NE,43,5.0,9.0,83,0.00,,,0.00,VWS V14.01,2013-02-04 19:06:00,
2013-02-04 13:11:00,23.2,18.8,29.91,NNW,333,6.0,15.0,83,0.00,,,0.00,VWS V14.01,2013-02-04 19:11:00,
2013-02-04 13:16:00,22.9,18.2,29.91,ENE,63,8.0,15.0,82,0.00,,,0.00,VWS V14.01,2013-02-04 19:16:00,
2013-02-04 13:21:00,23.0,18.3,29.90,NW,325,4.0,15.0,82,0.00,,,0.00,VWS V14.01,2013-02-04 19:21:00,
2013-02-04 13:26:00,23.5,18.8,29.90,NNE,32,5.0,15.0,82,0.00,,,0.00,VWS V14.01,2013-02-04 19:26:00,
2013-02-04 13:31:00,23.5,18.5,29.91,NW,309,4.0,9.0,81,0.00,,OVC024,0.00,VWS V14.01,2013-02-04 19:31:00,
2013-02-04 13:36:00,23.6,18.9,29.92,NW,319,5.0,10.0,82,0.00,,OVC024,0.00,VWS V14.01,2013-02-04 19:36:00,
2013-02-04 13:41:00,23.6,18.6,29.92,East,94,7.0,10.0,81,0.00,,OVC024,0.00,VWS V14.01,2013-02-04 19:41:00,
2013-02-04 13:46:00,23.5,18.5,29.92,NE,36,10.0,12.0,81,0.00,,OVC024,0.00,VWS V14.01,2013-02-04 19:46:00,
2013-02-04 13:51:00,23.6,18.9,29.92,NE,42,2.0,12.0,82,0.00,,OVC024,0.00,VWS V14.01,2013-02-04 19:51:00,
2013-02-04 13:56:00,23.8,18.8,29.92,NNW,346,1.0,12.0,81,0.00,,OVC024,0.00,VWS V14.01,2013-02-04 19:56:00,
2013-02-04 14:01:00,23.9,18.6,29.93,ENE,66,5.0,10.0,80,0.00,,OVC024,0.00,VWS V14.01,2013-02-04 20:01:00,
2013-02-04 14:06:00,23.6,18.4,29.92,NNE,22,7.0,14.0,80,0.00,,OVC024,0.00,VWS V14.01,2013-02-04 20:06:00,
2013-02-04 14:11:00,23.4,18.4,29.93,NNW,338,2.0,14.0,81,0.00,,OVC024,0.00,VWS V14.01,2013-02-04 20:11:00,
2013-02-04 14:16:00,23.1,17.9,29.92,NW,309,1.0,14.0,80,0.00,,OVC024,0.00,VWS V14.01,2013-02-04 20:16:00,
2013-02-04 14:21:00,22.7,17.8,29.92,NNW,333,5.0,14.0,81,0.00,,OVC024,0.00,VWS V14.01,2013-02-04 20:21:00,
2013-02-04 14:26:00,22.4,17.5,29.92,North,11,6.0,14.0,81,0.00,,OVC024,0.00,VWS V14.01,2013-02-04 20:26:00,
2013-02-04 14:31:00,21.9,17.0,29.92,NNW,333,5.0,13.0,81,0.00,,OVC024,0.00,VWS V14.01,2013-02-04 20:31:00,
2013-02-04 14:36:00,21.7,17.1,29.91,NNW,347,4.0,13.0,82,0.00,,OVC030,0.00,VWS V14.01,2013-02-04 20:36:00,
2013-02-04 14:41:00,21.6,17.0,29.90,NW,319,4.0,13.0,82,0.00,,OVC030,0.00,VWS V14.01,2013-02-04 20:41:00,
2013-02-04 14:46:00,21.5,16.9,29.91,NE,40,8.0,13.0,82,0.00,,OVC030,0.00,VWS V14.01,2013-02-04 20:46:00,
2013-02-04 14:51:00,21.0,16.1,29.90,WNW,302,6.0,13.0,81,0.00,,OVC030,0.00,VWS V14.01,2013-02-04 20:51:00,
2013-02-04 14:56:00,20.7,16.1,29.90,NNW,340,11.0,13.0,82,0.00,,OVC030,0.00,VWS V14.01,2013-02-04 20:56:00,
2013-02-04 15:01:00,20.6,16.0,29.90,NNE,15,8.0,8.0,82,0.00,,OVC030,0.00,VWS V14.01,2013-02-04 21:01:00,
2013-02-04 15:06:00,20.5,15.9,29.90,NNW,340,3.0,12.0,82,0.00,,OVC030,0.00,VWS V14.01,2013-02-04 21:06:00,
2013-02-04 15:11:00,20.6,16.0,29.90,NE,53,2.0,12.0,82,0.00,,OVC030,0.00,VWS V14.01,2013-02-04 21:11:00,
2013-02-04 15:16:00,20.6,16.0,29.91,NW,309,2.0,12.0,82,0.00,,OVC030,0.00,VWS V14.01,2013-02-04 21:16:00,
2013-02-04 15:21:00,20.6,16.0,29.90,NW,313,3.0,12.0,82,0.00,,OVC030,0.00,VWS V14.01,2013-02-04 21:21:00,
2013-02-04 15:26:00,20.5,15.9,29.91,ENE,57,4.0,12.0,82,0.00,,OVC030,0.00,VWS V14.01,2013-02-04 21:26:00,
2013-02-04 15:31:00,20.4,15.8,29.91,NE,44,4.0,10.0,82,0.00,,OVC030,0.00,VWS V14.01,2013-02-04 21:31:00,
2013-02-04 15:36:00,20.4,15.8,29.91,NNE,24,4.0,10.0,82,0.00,,BKN032,0.00,VWS V14.01,2013-02-04 21:36:00,
2013-02-04 15:41:00,20.3,15.7,29.91,West,277,2.0,10.0,82,0.00,,BKN032,0.00,VWS V14.01,2013-02-04 21:41:00,
2013-02-04 15:46:00,20.1,15.5,29.91,North,351,2.0,13.0,82,0.00,,BKN032,0.00,VWS V14.01,2013-02-04 21:46:00,
2013-02-04 15:51:00,19.9,15.3,29.92,NW,320,4.0,13.0,82,0.00,,BKN032,0.00,VWS V14.01,2013-02-04 21:51:00,
2013-02-04 15:56:00,19.9,15.3,29.92,NW,315,3.0,13.0,82,0.00,,BKN032,0.00,VWS V14.01,2013-02-04 21:56:00,
2013-02-04 16:01:00,19.9,15.0,29.92,NNE,15,1.0,3.0,81,0.00,,BKN032,0.00,VWS V14.01,2013-02-04 22:01:00,
2013-02-04 16:06:00,19.8,14.9,29.92,NE,35,2.0,9.0,81,0.00,,BKN032,0.00,VWS V14.01,2013-02-04 22:06:00,
2013-02-04 16:11:00,19.6,14.7,29.92,NNW,334,3.0,9.0,81,0.00,,BKN032,0.00,VWS V14.01,2013-02-04 22:11:00,
2013-02-04 16:16:00,19.5,14.4,29.92,NW,325,2.0,9.0,80,0.00,,BKN032,0.00,VWS V14.01,2013-02-04 22:16:00,
2013-02-04 16:21:00,19.4,14.5,29.92,NNW,340,1.0,9.0,81,0.00,,BKN032,0.00,VWS V14.01,2013-02-04 22:21:00,
2013-02-04 16:26:00,19.4,14.2,29.92,NNW,333,4.0,9.0,80,0.00,,BKN032,0.00,VWS V14.01,2013-02-04 22:26:00,
2013-02-04 16:31:00,19.1,14.0,29.92,NNW,329,5.0,7.0,80,0.00,,BKN032,0.00,VWS V14.01,2013-02-04 22:31:00,
2013-02-04 16:36:00,18.8,13.7,29.93,NNE,15,2.0,10.0,80,0.00,,FEW250,0.00,VWS V14.01,2013-02-04 22:36:00,
2013-02-04 16:41:00,18.6,13.5,29.93,NW,314,1.0,10.0,80,0.00,,FEW250,0.00,VWS V14.01,2013-02-04 22:41:00,
2013-02-04 16:46:00,18.2,13.1,29.93,NE,35,2.0,10.0,80,0.00,,FEW250,0.00,VWS V14.01,2013-02-04 22:46:00,
2013-02-04 16:51:00,17.8,13.0,29.93,NW,318,1.0,10.0,81,0.00,,FEW250,0.00,VWS V14.01,2013-02-04 22:51:00,
2013-02-04 16:56:00,17.2,12.4,29.94,NNW,328,3.0,10.0,81,0.00,,FEW250,0.00,VWS V14.01,2013-02-04 22:56:00,
2013-02-04 17:01:00,16.8,12.3,29.94,NNW,333,2.0,6.0,82,0.00,,FEW250,0.00,VWS V14.01,2013-02-04 23:01:00,
2013-02-04 17:06:00,16.4,11.9,29.94,NNE,32,3.0,6.0,82,0.00,,FEW250,0.00,VWS V14.01,2013-02-04 23:06:00,
2013-02-04 17:11:00,16.0,11.5,29.94,North,355,5.0,7.0,82,0.00,,FEW250,0.00,VWS V14.01,2013-02-04 23:11:00,
2013-02-04 17:16:00,15.7,11.5,29.94,NNW,346,0.0,8.0,83,0.00,,FEW250,0.00,VWS V14.01,2013-02-04 23:16:00,
2013-02-04 17:21:00,15.3,11.1,29.95,North,355,2.0,8.0,83,0.00,,FEW250,0.00,VWS V14.01,2013-02-04 23:21:00,
2013-02-04 17:26:00,14.9,10.7,29.95,NNW,347,3.0,8.0,83,0.00,,FEW250,0.00,VWS V14.01,2013-02-04 23:26:00,
2013-02-04 17:31:00,14.7,10.5,29.96,NNE,22,2.0,2.0,83,0.00,,FEW250,0.00,VWS V14.01,2013-02-04 23:31:00,
2013-02-04 17:36:00,14.4,10.2,29.96,NNE,12,3.0,6.0,83,0.00,,FEW250,0.00,VWS V14.01,2013-02-04 23:36:00,
2013-02-04 17:41:00,14.1,9.9,29.96,NNE,30,3.0,7.0,83,0.00,,FEW250,0.00,VWS V14.01,2013-02-04 23:41:00,
2013-02-04 17:46:00,14.0,10.1,29.96,ENE,68,4.0,7.0,84,0.00,,FEW250,0.00,VWS V14.01,2013-02-04 23:46:00,
2013-02-04 17:51:00,13.8,9.6,29.96,NNE,30,2.0,8.0,83,0.00,,FEW250,0.00,VWS V14.01,2013-02-04 23:51:00,
2013-02-04 17:56:00,13.6,9.4,29.97,NE,44,1.0,8.0,83,0.00,,FEW250,0.00,VWS V14.01,2013-02-04 23:56:00,
2013-02-04 18:01:00,13.4,9.2,29.97,NE,46,3.0,5.0,83,0.00,,FEW250,0.00,VWS V14.01,2013-02-05 00:01:00,
2013-02-04 18:06:00,13.2,9.0,29.97,NNE,33,2.0,7.0,83,0.00,,FEW250,0.00,VWS V14.01,2013-02-05 00:06:00,
2013-02-04 18:11:00,13.1,8.9,29.97,NE,53,2.0,7.0,83,0.00,,FEW250,0.00,VWS V14.01,2013-02-05 00:11:00,
2013-02-04 18:16:00,12.9,8.4,29.97,ENE,58,2.0,7.0,82,0.00,,FEW250,0.00,VWS V14.01,2013-02-05 00:16:00,
2013-02-04 18:21:00,12.7,8.5,29.96,NE,36,2.0,7.0,83,0.00,,FEW250,0.00,VWS V14.01,2013-02-05 00:21:00,
2013-02-04 18:26:00,12.6,8.4,29.97,NE,44,0.0,7.0,83,0.00,,FEW250,0.00,VWS V14.01,2013-02-05 00:26:00,
2013-02-04 18:31:00,12.4,8.2,29.96,NE,53,0.0,1.0,83,0.00,,FEW250,0.00,VWS V14.01,2013-02-05 00:31:00,
2013-02-04 18:36:00,12.3,8.4,29.96,NNE,22,0.0,1.0,84,0.00,,FEW250,0.00,VWS V14.01,2013-02-05 00:36:00,
2013-02-04 18:41:00,12.2,8.3,29.96,NE,37,0.0,1.0,84,0.00,,FEW250,0.00,VWS V14.01,2013-02-05 00:41:00,
2013-02-04 18:46:00,12.1,8.5,29.96,NE,35,1.0,2.0,85,0.00,,FEW250,0.00,VWS V14.01,2013-02-05 00:46:00,
2013-02-04 19:00:00,12.0,8.1,29.96,NE,45,0.0,2.0,84,0.00,,FEW250,0.00,VWS V14.01,2013-02-05 01:00:00,
2013-02-04 19:04:00,12.0,8.0,29.96,NW,319,0.0,2.0,84,0.00,,,0.00,weatherlink.com 1.10,2013-02-05 01:04:00,
2013-02-04 19:19:00,12.1,8.0,29.97,NW,314,0.0,3.0,84,0.00,,,0.00,weatherlink.com 1.10,2013-02-05 01:19:00,
2013-02-04 19:30:00,12.3,8.1,29.97,NNW,338,0.0,3.0,83,0.00,,FEW250,0.00,VWS V14.01,2013-02-05 01:30:00,
2013-02-04 19:34:00,12.4,8.0,29.98,NNW,348,0.0,2.0,83,0.00,,,0.00,weatherlink.com 1.10,2013-02-05 01:34:00,
2013-02-04 19:49:00,12.4,8.0,29.99,NW,317,3.0,3.0,82,0.00,,,0.00,weatherlink.com 1.10,2013-02-05 01:49:00,
2013-02-04 20:00:00,12.5,7.8,30.00,NW,315,1.0,6.0,81,0.00,,FEW250,0.00,VWS V14.01,2013-02-05 02:00:00,
2013-02-04 20:04:00,12.5,8.0,30.00,WNW,287,0.0,4.0,81,0.00,,,0.00,weatherlink.com 1.10,2013-02-05 02:04:00,
2013-02-04 20:19:00,12.5,7.0,29.99,NNE,26,1.0,6.0,80,0.00,,,0.00,weatherlink.com 1.10,2013-02-05 02:19:00,
2013-02-04 20:30:00,12.2,6.9,29.99,NW,315,2.0,6.0,79,0.00,,FEW250,0.00,VWS V14.01,2013-02-05 02:30:00,
2013-02-04 20:34:00,12.1,7.0,29.99,North,349,3.0,5.0,79,0.00,,,0.00,weatherlink.com 1.10,2013-02-05 02:34:00,
2013-02-04 20:49:00,11.4,6.0,29.98,NNW,329,0.0,2.0,78,0.00,,,0.00,weatherlink.com 1.10,2013-02-05 02:49:00,
2013-02-04 21:00:00,11.2,6.0,29.98,NNW,338,1.0,5.0,79,0.00,,FEW250,0.00,VWS V14.01,2013-02-05 03:00:00,
2013-02-04 21:04:00,11.1,6.0,29.98,NNE,16,0.0,2.0,79,0.00,,,0.00,weatherlink.com 1.10,2013-02-05 03:04:00,
2013-02-04 21:19:00,10.9,5.0,29.98,NNE,28,0.0,1.0,78,0.00,,,0.00,weatherlink.com 1.10,2013-02-05 03:19:00,
2013-02-04 21:30:00,10.6,5.1,29.99,NNE,22,0.0,2.0,78,0.00,,FEW250,0.00,VWS V14.01,2013-02-05 03:30:00,
2013-02-04 21:34:00,10.4,5.0,29.99,NNW,346,1.0,3.0,78,0.00,,,0.00,weatherlink.com 1.10,2013-02-05 03:34:00,
2013-02-04 21:49:00,10.1,5.0,29.98,NE,42,0.0,2.0,79,0.00,,,0.00,weatherlink.com 1.10,2013-02-05 03:49:00,
2013-02-04 22:00:00,9.7,4.5,29.98,NE,45,0.0,3.0,79,0.00,,FEW250,0.00,VWS V14.01,2013-02-05 04:00:00,
2013-02-04 22:04:00,9.6,4.0,29.98,NE,39,1.0,1.0,79,0.00,,,0.00,weatherlink.com 1.10,2013-02-05 04:04:00,
2013-02-04 22:19:00,9.1,4.0,29.98,North,355,0.0,1.0,80,0.00,,,0.00,weatherlink.com 1.10,2013-02-05 04:19:00,
2013-02-04 22:30:00,9.0,4.1,29.99,ENE,68,0.0,2.0,80,0.00,,FEW250,0.00,VWS V14.01,2013-02-05 04:30:00,
2013-02-04 22:35:00,9.0,4.0,29.99,NNE,26,0.0,1.0,80,0.00,,,0.00,weatherlink.com 1.10,2013-02-05 04:35:00,
2013-02-04 22:50:00,8.0,3.0,29.99,NNE,26,0.0,0.0,81,0.00,,,0.00,weatherlink.com 1.10,2013-02-05 04:50:00,
2013-02-04 23:00:00,7.0,2.7,29.99,ENE,68,0.0,0.0,82,0.00,,FEW250,0.00,VWS V14.01,2013-02-05 05:00:00,
2013-02-04 23:05:00,6.6,3.0,29.99,NNE,26,0.0,0.0,83,0.00,,,0.00,weatherlink.com 1.10,2013-02-05 05:05:00,
2013-02-04 23:20:00,5.3,2.0,29.98,NNE,26,0.0,0.0,84,0.00,,,0.00,weatherlink.com 1.10,2013-02-05 05:20:00,
2013-02-04 23:30:00,5.6,2.3,29.97,ENE,68,0.0,0.0,86,0.00,,FEW250,0.00,VWS V14.01,2013-02-05 05:30:00,
2013-02-04 23:35:00,6.2,3.0,29.97,ESE,114,1.0,1.0,85,0.00,,,0.00,weatherlink.com 1.10,2013-02-05 05:35:00,
2013-02-04 23:50:00,6.9,2.0,29.97,ESE,104,0.0,1.0,81,0.00,,,0.00,weatherlink.com 1.10,2013-02-05 05:50:00,